Regional Weather Roundup
Issued by NWS

Home | Current Version | Previous Version | Graphics & Text | Print | Product List | Glossary On
Versions: 1 2 3 4 5 6 7 8 9 10 11 12 13 14 15 16 17 18 19 20 21 22 23 24 25 26 27 28 29 30 31 32 33 34 35 36 37 38 39 40 41 42 43 44 45 46 47 48 49 50
000
ASUS43 KMPX 231810
RWRMN
WEATHER ROUNDUP FOR MINNESOTA
NATIONAL WEATHER SERVICE TWIN CITIES/CHANHASSEN MN
100 PM CDT FRI JUN 23 2017


NOTE: "FAIR" INDICATES FEW OR NO CLOUDS BELOW 12,000 FEET WITH NO
SIGNIFICANT WEATHER AND/OR OBSTRUCTIONS TO VISIBILITY. N/A MEANS
CURRENT SKY AND/OR WEATHER CONDITIONS ARE NOT AVAILABLE.

MNZ060>063-068>070-231900-
   Twin Cities Metro

CITY           SKY/WX    TMP DP  RH WIND       PRES   REMARKS
TWIN CITIES    PTSUNNY   69  52  54 NW21      29.80S
6HR MIN TEMP:  62; 6HR MAX TEMP:  70;

ST PAUL        CLOUDY    68  53  58 W16       29.79F
BLAINE         PTSUNNY   70  52  52 W15       29.80R
LAKEVILLE      CLOUDY    66  54  63 NW17      29.80F
EDEN PRAIRIE   PTSUNNY   70  51  51 NW17G29   29.79F
6HR MIN TEMP:  62; 6HR MAX TEMP:  72;

SOUTH ST PAUL  CLOUDY    69  51  52 NW13G24   29.79S
LAKE ELMO      PTSUNNY   68  52  56 NW12G22   29.80S
$$
MNZ001>005-007-008-013>017-022>024-027-028-231900-
   Northwest Minnesota

CITY           SKY/WX    TMP DP  RH WIND       PRES   REMARKS
BEMIDJI        PTSUNNY   63  53  71 W20G26    29.80S
HALLOCK        CLOUDY    57  52  82 NW13      29.87R
ROSEAU           N/A     57  54  88 NW16G22   29.81R
WARROAD        CLOUDY    61  55  82 W15G21    29.78S
THIEF RVR FALL CLOUDY    59  49  69 NW17G25   29.86R
CROOKSTON      CLOUDY    61  50  67 NW17G30   29.88R
FOSSTON        CLOUDY    61  50  67 NW15G29   29.85R
DETROIT LAKES  CLOUDY    57  54  88 NW21G29   29.89R
MOORHEAD       CLOUDY    63  48  59 NW22G28   29.90R
PARK RAPIDS    PTSUNNY   62  54  74 NW16G28   29.82R
MAHNOMEN       CLOUDY    60  51  72 NW20      29.86R
$$
MNZ006-009>011-018-025>026-231900-
   North Central Minnesota

CITY           SKY/WX    TMP DP  RH WIND       PRES   REMARKS
BAUDETTE       CLOUDY    59  56  89 NW15G23   29.75R
FLAG ISLAND    PTSUNNY   61  54  77 NW23      29.74S
INTL FALLS     MOSUNNY   67  48  50 NW18G25   29.71R
6HR MIN TEMP:  55; 6HR MAX TEMP:  68; 6HR PCP:  0.01;

WASKISH        LGT RAIN  59  55  88 W14G20    29.79R
BIG FORK       MOSUNNY   66  52  59 NW12G17   29.74R
LONGVILLE      CLOUDY    64  54  68 W13G18    29.79S
GRAND RAPIDS   CLOUDY    62  54  74 NW14      29.78R
CRANE LAKE     PTSUNNY   63  50  63 NW9G16    29.70S
ORR            PTSUNNY   63  48  59 W10G16    29.69S
COOK           MOSUNNY   63  48  59 NW10G16   29.72R
WALKER         MOCLDY    62  57  82 NW12G17   29.80S
$$
MNZ012-019>021-037-231900-
   Northeast Minnesota

CITY           SKY/WX    TMP DP  RH WIND       PRES   REMARKS
DULUTH         PTSUNNY   65  47  52 NW17G26   29.71R
6HR MIN TEMP:  54; 6HR MAX TEMP:  67;

ELY            PTSUNNY   61  52  72 W10G18    29.68S
HIBBING        MOSUNNY   64  49  57 NW16G26   29.72R
EVELETH        MOSUNNY   63  40  42 NW14G22   29.72S
DULUTH HARBOR  CLOUDY    66  52  59 W16       29.71S
TWO HARBORS    PTSUNNY   68  54  60 NW12G24   29.68R
SILVER BAY     MOSUNNY   70  50  49 W9        29.66R
GRAND MARAIS     N/A     70  52  52 MISG      29.60F
G MARAIS ARPRT MOSUNNY   63  48  59 W8G20     29.64R
$$
MNZ029>031-032-039>041-046>048-054>057-064-231900-
   West Central Minnesota

CITY           SKY/WX    TMP DP  RH WIND       PRES   REMARKS
FERGUS FALLS   PTSUNNY   61  54  77 NW21      29.88R
WHEATON        CLOUDY    63  48  59 W20G26    29.94R
MORRIS         PTSUNNY   66  52  59 NW23      29.90S
ALEXANDRIA     CLOUDY    62  53  72 NW20G32   29.89R
ELBOW LAKE     CLOUDY    61  53  74 NW20G25   29.91R
WADENA         CLOUDY    63  54  72 NW10G24   29.84S
GLENWOOD       SUNNY     64  55  72 W23G31    29.88S
APPLETON       MOSUNNY   66  52  59 NW22G28   29.91S
BENSON         CLOUDY    64  52  63 N22G31    29.92R
ORTONVILLE     CLOUDY    64  48  55 NW22G28   29.93S
MADISON        CLOUDY    64  54  68 NW13G23   29.94S
WILLMAR        LGT RAIN  63  55  77 NW21G26   29.90S
$$
MNZ033>034-036-042>043-049>051-058-059-231900-
   Central Minnesota

CITY           SKY/WX    TMP DP  RH WIND       PRES   REMARKS
ST CLOUD       CLOUDY    69  50  50 NW16G26   29.81R
6HR MIN TEMP:  58; 6HR MAX TEMP:  70;

SAUK CENTRE    MOCLDY    61  57  86 NW15      29.86R
PAYNESVILLE    CLOUDY    65  55  68 W15G24    29.87R
AITKIN         LGT RAIN  61  52  72 W8G24     29.78R
PINE RIVER     CLOUDY    63  54  72 N14       29.84R
BRAINERD       CLOUDY    65  51  60 NW10      29.80F
STAPLES        CLOUDY    64  52  63 NW17G25   29.83S
LONG PRAIRIE   LGT RAIN  59  54  82 W9        29.87R
LITTLE FALLS   CLOUDY    64  50  59 W21G29    29.83R
LITCHFIELD     PTSUNNY   68  55  64 NW16G28   29.86R
BUFFALO        PTSUNNY   69  48  46 NW15G21   29.83R
MAPLE LAKE     PTSUNNY   68  53  58 NW13G20   29.84R
HUTCHINSON     CLOUDY    66  54  65 W17G23    29.87S
$$
MNZ037-044-045-052-053-231900-
   East Central Minnesota

CITY           SKY/WX    TMP DP  RH WIND       PRES   REMARKS
PRINCETON      MOSUNNY   72  52  49 NW13G22   29.80S
MORA           SUNNY     66  50  55 NW15G21   29.79F
CAMBRIDGE      PTSUNNY   72  54  53 NW10G20   29.77S
RUSH CITY      CLOUDY    68  52  56 W8        29.78S
MOOSE LAKE     CLOUDY    66  50  55 NW14G23   29.74S
HINCKLEY       CLOUDY    68  52  56 W10G20    29.77S
CLOQUET        PTSUNNY   66  45  45 W20G28    29.73S
MCGREGOR       CLOUDY    63  52  67 W9G17     29.77S
$$
MNZ071>073-080-081-089-090-097-098-231900-
   Southwest Minnesota

CITY           SKY/WX    TMP DP  RH WIND       PRES   REMARKS
MONTEVIDEO     CLOUDY    64  54  68 N18G26    29.92R
GRANITE FALLS  CLOUDY    68  54  61 NW22G31   29.93S
CANBY          CLOUDY    65  52  63 W20G33    29.97S
MARSHALL       CLOUDY    64  53  67 NW24      29.93S
REDWOOD FALLS  CLOUDY    65  51  60 NW14G30   29.89S
OLIVIA         LGT RAIN  59  54  82 NW14G29   29.89R
PIPESTONE      CLOUDY    63  48  59 NW17G28   29.97F
WINDOM         CLOUDY    64  52  63 NW18G30   29.92F
WORTHINGTON    CLOUDY    61  53  75 NW23      29.97F
JACKSON        CLOUDY    63  52  67 W18G24    29.93F
TRACY          CLOUDY    63  54  71 NW20G25   29.95R
SLAYTON        CLOUDY    60  50  69 NW20G25   29.97S
$$
MNZ065>067-074>077-082>085-091>093-231900-
   South Central Minnesota

CITY           SKY/WX    TMP DP  RH WIND       PRES   REMARKS
MANKATO        CLOUDY    64  54  69 NW21      29.87R
NEW ULM        CLOUDY    66  54  63 NW18G29   29.88R
ST JAMES       DRIZZLE   63  57  82 NW14G23   29.91S
GLENCOE        CLOUDY    66  58  75 W18G24    29.84S
FARIBAULT      PTSUNNY   66  54  63 NW9G20    29.84R
OWATONNA       LGT RAIN  64  55  72 W20G30    29.85R
WASECA         CLOUDY    63  55  77 NW14      29.87R
ALBERT LEA     CLOUDY    66  54  63 W14G23    29.86R
$$
MNZ078>079-086>088-094>096-231900-
   Southeast Minnesota

CITY           SKY/WX    TMP DP  RH WIND       PRES   REMARKS
ROCHESTER      PTSUNNY   68  55  63 NW21      29.83S
6HR MIN TEMP:  61; 6HR MAX TEMP:  68;

RED WING       CLOUDY    66  52  59 NW12G18   29.78S
STANTON        PTSUNNY   69  56  63 NW16G23   29.80S
DODGE CENTER   PTSUNNY   66  54  63 NW16G22   29.83R
WINONA         PTSUNNY   70  52  52 NW14G20   29.78R
AUSTIN         PTSUNNY   66  54  63 NW17G24   29.84R
PRESTON        MOSUNNY   66  52  60 NW17G23   29.82S
$$
ABBREVIATIONS USED IN REMARKS
   TC - TEMPERATURES IN CELSIUS
  WCI - WIND CHILL INDEX
   HX - HEAT INDEX
  VSB - VISIBILITY
$$




USA.gov is the U.S. government's official web portal to all federal, state and local government web resources and services.